User: anonymous   Login
Location: La Fredeussais
(48.1780°N, 1.3980°W)
Time: 15:00:31
(UTC+00:00)
Language:

STARLINK-2701 - Orbit

View from above orbital plane
View from above orbital plane
View from above satellite
View from above satellite

Ground track
Ground track

The orbit data is extracted from the following two-line orbital elements,

1 48656C 21044U   21298.03630014 -.00007266  00000-0 -48672-3 0  2984
2 48656  53.0543  89.2641 0001714  84.2100 308.8358 15.06415128    18
Epoch (UTC): 25 October 2021 00:52:16
Eccentricity: 0.0001714
inclination: 53.0543°
perigee height: 546 km
apogee height: 548 km
right ascension of ascending node: 89.2641°
argument of perigee: 84.2100°
revolutions per day: 15.06415128
mean anomaly at epoch: 308.8358°
orbit number at epoch: 1

The dashed part of the orbit path shows where the satellite is in the earth's shadow,  

DLR